Weather History for Monticello, KY

Change the Weather History Date:

Thursday, August 8, 2013

  Actual Average Record
Temperature  
Mean Temperature 76 °F -  
Max Temperature 82 °F 86 °F 97 °F (1980)
Min Temperature 68 °F 63 °F 47 °F (1989)
Cooling Degree Days 11    
Growing Degree Days 26 (Base 50)    
Moisture  
Dew Point 74 °F    
Average Humidity 92    
Maximum Humidity 100    
Minimum Humidity 79    
Precipitation  
Precipitation 0.05 in - - ()
Sea Level Pressure  
Sea Level Pressure 30.02 in    
Wind  
Wind Speed 5 mph (SSW)    
Max Wind Speed 14 mph    
Max Gust Speed -    
Visibility 8 miles    
Events Rain    
Averages and records for this station are not official NWS values.
T = Trace of Precipitation, MM = Missing Value Source: NWS Daily Summary

Daily Weather History Graph

Daily Weather History Graph

Search for Another Location

Airport:

Trip Planner

Search our weather history database for the weather conditions in past years. The results will help you decide how hot, cold, wet, or windy it might be!

Date:

Astronomy

Aug. 08, 2013 Rise Set
Actual Time 5:50 AM CDT 7:38 PM CDT
Civil Twilight 5:22 AM CDT 8:06 PM CDT
Nautical Twilight 4:48 AM CDT 8:40 PM CDT
Astronomical Twilight 4:12 AM CDT 9:16 PM CDT
Moon 7:32 AM CDT (8/8) 8:21 PM CDT (8/8)
Length of Visible Light 14h 43m
Length of Day
13h 47m
Waxing Crescent, 3% of the Moon is Illuminated
Aug 8
Waxing Crescent
Aug 14
First Quarter
Aug 20
Full
Aug 28
Last Quarter
Sep 5
New

Hourly Weather History & Observations

Time (CDT) Temp. Heat Index Dew Point Humidity Pressure Visibility Wind Dir Wind Speed Gust Speed Precip Events Conditions
12:56 AM 73.9 °F - 73.9 °F 100% 30.01 in 10.0 mi South 5.8 mph - N/A   Scattered Clouds
1:56 AM 73.9 °F - 73.9 °F 100% 30.00 in 10.0 mi Calm Calm - N/A   Partly Cloudy
2:56 AM 73.9 °F - 73.9 °F 100% 30.00 in 10.0 mi Calm Calm - N/A   Mostly Cloudy
3:56 AM 73.9 °F - 72.9 °F 96% 29.99 in 10.0 mi Calm Calm - N/A   Clear
4:56 AM 72.9 °F - 72.9 °F 100% 29.99 in 10.0 mi South 3.5 mph - N/A   Partly Cloudy
5:56 AM 72.9 °F - 72.9 °F 100% 30.00 in 2.5 mi SSW 5.8 mph - 0.01 in Rain Rain
6:18 AM 73.4 °F - 73.4 °F 100% 30.02 in 1.2 mi SSW 6.9 mph - 0.02 in Rain Light Rain
6:26 AM 73.4 °F - 73.4 °F 100% 30.02 in 2.0 mi South 6.9 mph - 0.02 in Rain Light Rain
6:34 AM 73.4 °F - 73.4 °F 100% 30.02 in 3.0 mi South 8.1 mph - 0.02 in Rain Light Rain
6:39 AM 73.4 °F - 73.4 °F 100% 30.02 in 1.8 mi SSW 9.2 mph - 0.02 in Rain Light Rain
6:56 AM 72.0 °F - 72.0 °F 100% 30.02 in 4.0 mi SSW 5.8 mph - 0.03 in Rain Light Rain
7:23 AM 73.4 °F - 73.4 °F 100% 30.02 in 10.0 mi Calm Calm - 0.00 in   Scattered Clouds
7:56 AM 72.9 °F - 72.9 °F 100% 30.02 in 10.0 mi Calm Calm - 0.00 in   Mostly Cloudy
8:28 AM 73.4 °F - 73.4 °F 100% 30.03 in 1.8 mi Calm Calm - 0.00 in Rain Light Rain
8:36 AM 73.4 °F - 73.4 °F 100% 30.04 in 2.0 mi SSW 4.6 mph - 0.01 in Rain Light Rain
8:39 AM 73.4 °F - 73.4 °F 100% 30.04 in 3.0 mi SSW 5.8 mph - 0.01 in Rain Light Rain
8:56 AM 73.9 °F - 73.9 °F 100% 30.03 in 5.0 mi Calm Calm - 0.01 in Rain Light Rain
9:56 AM 75.9 °F - 74.8 °F 96% 30.04 in 10.0 mi SSW 6.9 mph - 0.00 in   Mostly Cloudy
10:56 AM 77.9 °F - 74.8 °F 90% 30.06 in 10.0 mi SSW 9.2 mph - N/A   Mostly Cloudy
11:56 AM 79.9 °F - 74.8 °F 85% 30.04 in 10.0 mi SSW 12.7 mph - N/A   Mostly Cloudy
12:11 PM 78.8 °F - 75.2 °F 89% 30.06 in 10.0 mi SW 11.5 mph - N/A   Scattered Clouds
12:20 PM 78.8 °F - 73.4 °F 83% 30.05 in 10.0 mi SSW 13.8 mph - N/A   Mostly Cloudy
12:31 PM 78.8 °F - 73.4 °F 83% 30.05 in 10.0 mi SSW 11.5 mph - N/A   Scattered Clouds
12:38 PM 80.6 °F 86.2 °F 75.2 °F 84% 30.05 in 10.0 mi SSW 12.7 mph - N/A   Mostly Cloudy
12:56 PM 79.0 °F - 73.9 °F 84% 30.03 in 10.0 mi SSW 11.5 mph - N/A   Mostly Cloudy
1:21 PM 80.6 °F 86.2 °F 75.2 °F 84% 30.03 in 10.0 mi SSW 9.2 mph - N/A   Scattered Clouds
1:56 PM 81.0 °F 86.2 °F 73.9 °F 79% 30.01 in 10.0 mi SW 11.5 mph - N/A   Clear
2:36 PM 80.6 °F 85.4 °F 73.4 °F 79% 30.02 in 10.0 mi SW 9.2 mph - N/A   Mostly Cloudy
2:56 PM 82.9 °F 90.8 °F 75.9 °F 79% 30.00 in 10.0 mi SW 11.5 mph - N/A   Scattered Clouds
3:31 PM 82.4 °F 89.5 °F 75.2 °F 79% 30.00 in 10.0 mi South 6.9 mph - N/A   Mostly Cloudy
3:38 PM 82.4 °F 89.5 °F 75.2 °F 79% 30.00 in 10.0 mi SW 6.9 mph - N/A   Scattered Clouds
3:56 PM 81.9 °F 88.2 °F 74.8 °F 79% 29.99 in 10.0 mi SSW 12.7 mph - N/A   Partly Cloudy
4:33 PM 80.6 °F 85.4 °F 73.4 °F 79% 30.02 in 10.0 mi SW 10.4 mph - N/A   Mostly Cloudy
4:43 PM 78.8 °F - 73.4 °F 83% 30.01 in 10.0 mi SW 9.2 mph - N/A   Scattered Clouds
4:56 PM 79.0 °F - 73.9 °F 84% 30.01 in 10.0 mi SSW 10.4 mph - N/A   Partly Cloudy
5:56 PM 77.9 °F - 72.9 °F 84% 29.99 in 10.0 mi SSW 6.9 mph - N/A   Clear
6:56 PM 75.9 °F - 72.0 °F 87% 29.96 in 10.0 mi SSE 3.5 mph - N/A   Clear
7:56 PM 74.8 °F - 72.9 °F 94% 29.99 in 10.0 mi Calm Calm - N/A   Clear
8:56 PM 73.9 °F - 72.9 °F 96% 30.01 in 10.0 mi Calm Calm - N/A   Clear
9:56 PM 73.9 °F - 72.9 °F 96% 30.01 in 10.0 mi Calm Calm - N/A   Clear
10:56 PM 70.9 °F - 70.9 °F 100% 30.01 in 10.0 mi Calm Calm - N/A   Clear
11:56 PM 68.9 °F - 68.9 °F 100% 30.00 in 9.0 mi Calm Calm - N/A   Clear